Weather History for KPSM - March, 2013

Change the Weather History Date:

Saturday, March 9, 2013

  Actual Average Record
Temperature  
Mean Temperature 34 °F -  
Max Temperature 40 °F 37 °F 61 °F (1995)
Min Temperature 27 °F 22 °F 0 °F (2007)
Degree Days  
Heating Degree Days 31    
Moisture  
Dew Point 23 °F    
Average Humidity 62    
Maximum Humidity 94    
Minimum Humidity 40    
Precipitation  
Precipitation 0.00 in - - ()
Sea Level Pressure  
Sea Level Pressure 30.26 in    
Wind  
Wind Speed 9 mph (NE)    
Max Wind Speed 16 mph    
Max Gust Speed 23 mph    
Visibility 10 miles    
Events      
Averages and records for this station are not official NWS values.
T = Trace of Precipitation, MM = Missing Value Source: NWS Daily Summary

Daily Weather History Graph

Daily Weather History Graph

Search for Another Location

Airport or City:

Trip Planner

Search our weather history database for the weather conditions in past years. The results will help you decide how hot, cold, wet, or windy it might be!

Date:

Astronomy

Mar. 09, 2013 Rise Set
Actual Time 6:05 AM EST 5:42 PM EST
Civil Twilight 5:37 AM EST 6:11 PM EST
Nautical Twilight 5:04 AM EST 6:43 PM EST
Astronomical Twilight 4:31 AM EST 7:17 PM EST
Moon 4:30 AM EST (3/9) 3:39 PM EST (3/9)
Length of Visible Light 12h 33m
Length of Day
11h 37m
Waning Crescent, 5% of the Moon is Illuminated
Mar 9
Waning Crescent
Mar 11
New
Mar 19
First Quarter
Mar 27
Full
Apr 3
Last Quarter

Hourly Weather History & Observations

Time (EST) Temp. Windchill Dew Point Humidity Pressure Visibility Wind Dir Wind Speed Gust Speed Precip Events Conditions
12:55 AM 37.4 °F 29.8 °F 17.8 °F 45% 30.17 in 10.0 mi North 11.5 mph - N/A   Scattered Clouds
1:55 AM 36.9 °F 27.5 °F 17.6 °F 46% 30.17 in 10.0 mi North 16.1 mph 23.0 mph N/A   Mostly Cloudy
2:55 AM 35.4 °F 29.0 °F 17.6 °F 48% 30.17 in 10.0 mi North 8.1 mph - N/A   Partly Cloudy
3:55 AM 34.3 °F 27.0 °F 17.8 °F 51% 30.18 in 10.0 mi NNE 9.2 mph - N/A   Partly Cloudy
4:55 AM 32.9 °F 24.1 °F 18.0 °F 54% 30.19 in 10.0 mi North 11.5 mph - N/A   Clear
5:55 AM 32.4 °F 22.5 °F 17.1 °F 53% 30.21 in 10.0 mi North 13.8 mph - N/A   Partly Cloudy
6:55 AM 33.6 °F 26.8 °F 17.2 °F 51% 30.23 in 10.0 mi NNE 8.1 mph - N/A   Partly Cloudy
7:55 AM 36.1 °F 27.3 °F 17.6 °F 47% 30.25 in 10.0 mi North 13.8 mph - N/A   Clear
8:55 AM 38.3 °F 30.1 °F 18.3 °F 45% 30.25 in 10.0 mi North 13.8 mph - N/A   Clear
9:55 AM 40.6 °F 36.0 °F 17.8 °F 40% 30.25 in 10.0 mi NNE 6.9 mph - N/A   Partly Cloudy
10:55 AM 39.4 °F 33.8 °F 23.0 °F 52% 30.26 in 10.0 mi SE 8.1 mph - N/A   Partly Cloudy
11:55 AM 39.6 °F 34.0 °F 24.8 °F 56% 30.26 in 10.0 mi East 8.1 mph - N/A   Partly Cloudy
12:55 PM 40.3 °F 34.9 °F 24.8 °F 54% 30.26 in 10.0 mi SE 8.1 mph - N/A   Clear
1:55 PM 39.7 °F 33.7 °F 25.9 °F 58% 30.25 in 10.0 mi SE 9.2 mph - N/A   Clear
2:55 PM 38.8 °F 32.1 °F 26.6 °F 61% 30.25 in 10.0 mi ESE 10.4 mph - N/A   Clear
3:55 PM 38.3 °F 32.5 °F 25.9 °F 61% 30.27 in 10.0 mi East 8.1 mph - N/A   Clear
4:55 PM 37.4 °F 32.1 °F 27.0 °F 66% 30.28 in 10.0 mi East 6.9 mph - N/A   Clear
5:55 PM 35.8 °F 31.9 °F 28.2 °F 74% 30.31 in 10.0 mi ESE 4.6 mph - N/A   Clear
6:55 PM 33.8 °F - 28.4 °F 81% 30.33 in 10.0 mi Calm Calm - N/A   Clear
7:55 PM 31.6 °F - 26.6 °F 82% 30.34 in 10.0 mi Calm Calm - N/A   Clear
8:55 PM 30.6 °F - 27.3 °F 88% 30.34 in 10.0 mi Calm Calm - N/A   Clear
9:55 PM 28.4 °F 23.3 °F 26.6 °F 93% 30.37 in 10.0 mi West 4.6 mph - N/A   Clear
10:55 PM 28.2 °F 24.4 °F 26.2 °F 92% 30.35 in 10.0 mi NNW 3.5 mph - N/A   Clear
11:55 PM 27.0 °F 21.6 °F 25.3 °F 94% 30.37 in 10.0 mi North 4.6 mph - N/A   Clear